This is the latest recevied weather packets stored in our database for station/object SA6BET-2. If no packets are shown the sender has not sent any weather packets the latest 10 day(s).
| Time | Temp. | Humidity | Pressure | Rain* | Wind** | Luminosity | Snow |
|---|---|---|---|---|---|---|---|
| 1787902626 | 22.78° C | 100% | 1020 hPa | - | - | - | - |
| 1787901726 | 22.78° C | 100% | 1020.3 hPa | - | - | - | - |
| 1787900826 | 23.33° C | 100% | 1020.1 hPa | - | - | - | - |
| 1787899925 | 23.33° C | 100% | 1020.4 hPa | - | - | - | - |
| 1787899025 | 22.78° C | 100% | 1020.1 hPa | - | - | - | - |
| 1787898125 | 23.33° C | 100% | 1020.3 hPa | - | - | - | - |
| 1787897225 | 23.89° C | 100% | 1019 hPa | - | - | - | - |
| 1787896325 | 23.89° C | 100% | 1020.5 hPa | - | - | - | - |
| 1787895424 | 23.89° C | 100% | 1019.3 hPa | - | - | - | - |
| 1787894524 | 23.89° C | 100% | 1020.7 hPa | - | - | - | - |
| 1787893623 | 24.44° C | 100% | 1018.5 hPa | - | - | - | - |
| 1787892723 | 23.89° C | 100% | 1018.5 hPa | - | - | - | - |
| 1787891823 | 24.44° C | 100% | 1017.7 hPa | - | - | - | - |
| 1787890923 | 23.89° C | 100% | 1016.9 hPa | - | - | - | - |
| 1787890023 | 23.89° C | 100% | 1018.1 hPa | - | - | - | - |
| 1787889123 | 24.44° C | 100% | 1018.1 hPa | - | - | - | - |
| 1787888231 | 24.44° C | 100% | 1018.1 hPa | - | - | - | - |
| 1787887331 | 25° C | 88% | 1018.3 hPa | - | - | - | - |
| 1787886431 | 25° C | 75% | 1018.6 hPa | - | - | - | - |
| 1787885530 | 25° C | 75% | 1017.9 hPa | - | - | - | - |
| 1787884630 | 25° C | 79% | 1017.7 hPa | - | - | - | - |
| 1787883730 | 25° C | 91% | 1016.6 hPa | - | - | - | - |
| 1787882830 | 25° C | 100% | 1016.7 hPa | - | - | - | - |
| 1787881930 | 25° C | 100% | 1017.1 hPa | - | - | - | - |
| 1787881030 | 25° C | 100% | 1017.3 hPa | - | - | - | - |
* Rain since midnight (hover to see other rain measurements)
** Current wind speed in m/s (hover to see current wind gust speed)